FREGAT DEB, 45649

Orbit data source: Space-Track

FREGAT DEB, 45649 is space debris in LEO originally from a launch on Mon, 18 Jul 2011 UTC launched from the Tyuratam Missile And Space Complex (TTMTR). Debris objects in space refer to the collection of defunct objects orbiting the Earth. Examples of debris include non-operational satellites, rocket bodies, and fragments generated from explosions, collisions, or faulty payload assembly.

Loading next visibility...
Identifier
45649, 2011-037AR
Orbit
LEO
Country
Flag of CISCIS
Related business
Manufacturer
Lavochkin
Mission
Spacecraft
Bus & Motor
Unknown
Mass
Unknown
Launch date (UTC)
2011-07-18 (14 years ago)
Launch vehicle
Unknown
Launch site
Tyuratam Missile And Space Complex (TTMTR)
Object type
Payload
Rocket body
Debris
Shape & HBR
Unknown shape, 0.2 m
Radar Cross Section
Medium (>0.1 m² and <1 m²)

Expand to show TLE details & history
Last TLE update: 4 hours ago

TLE from 4 hours ago
0 FREGAT DEB
1 45649U 11037AR  25299.78325368  .00043593  00000-0  30927-1 0  9995
2 45649  51.5130  71.8957 0839855 102.4152 267.1924 12.92914236232642
Epoch: 2025-10-26T18:47Z
TLE epoch observation values (Epoch: 2025-10-26T18:47:53.117Z)
Latitude
0.00001°
Longitude
114.52989°
Altitude
1,375.563 km
Speed
7.133 km/s
True Right ascension
04h 47m 34s
True Declination
0° 00' 00"
Sunlit
Object was in full shadow at epoch
Visualization orbit readout
Latitude
Unknown
Longitude
Unknown
Altitude
Unknown
Speed
Unknown
Apparent Right ascension
Unknown
Apparent Declination
Unknown
Sunlit
N/A
Visualization observer readout
Local Sidereal Time
18:39:16
Azimuth
Unknown
Elevation
Unknown
Doppler factor
Unknown
Orbital elements
Apogee altitude
1,934.504 km
Perigee altitude
646.404 km
Semi-major axis
7,668.591 km
Eccentricity
0.08399
Inclination
51.513°
RAAN
71.8957°
Arg. of periapsis
102.4152°
True anomaly
257.67306°
Mean anomaly
267.1924°
Eccentric anomaly
262.42241°
Mean motion
3.23199 °/min
Orbital period
111.39 mins
BSTAR
0.030927
Loading maneuver chart data...
Computing Atmospheric mass density...
Loading historical data...
Loading historical data...
Loading historical data...
Loading historical data...
Loading historical data...
Loading historical data...
Loading historical data...

Documentation

Showing up to 5 results
|